Weather History for Panama City, FL

Change the Weather History Date:

Friday, February 15, 2013

  Actual Average Record
Temperature  
Mean Temperature 50 °F -  
Max Temperature 67 °F - 73 °F (2011)
Min Temperature 33 °F - 33 °F (2013)
Degree Days  
Heating Degree Days 15    
Cooling Degree Days 0    
Moisture  
Dew Point 36 °F    
Average Humidity 64    
Maximum Humidity 96    
Minimum Humidity 32    
Precipitation  
Precipitation 0.00 in - 0.04 in (2014)
Month to date precipitation  
Year to date precipitation  
Sea Level Pressure  
Sea Level Pressure 30.11 in    
Wind  
Wind Speed 1 mph (NW)    
Max Wind Speed 10 mph    
Max Gust Speed 15 mph    
Visibility 8 miles    
Events      
T = Trace of Precipitation, MM = Missing Value Source: NWS Daily Summary

Daily Weather History Graph

Daily Weather History Graph

Search for Another Location

Airport:

Trip Planner

Search our weather history database for the weather conditions in past years. The results will help you decide how hot, cold, wet, or windy it might be!

Date:

Astronomy

Feb. 15, 2013 Rise Set
Actual Time 7:23 AM EST 6:31 PM EST
Civil Twilight 6:58 AM EST 6:56 PM EST
Nautical Twilight 6:30 AM EST 7:24 PM EST
Astronomical Twilight 6:02 AM EST 7:52 PM EST
Moon 10:26 AM EST (2/15) No Moon Set
Length of Visible Light 11h 57m
Length of Day
11h 08m
Waxing Crescent, 30% of the Moon is Illuminated
Feb 15
Waxing Crescent
Feb 17
First Quarter
Feb 25
Full
Mar 4
Last Quarter
Mar 11
New

Hourly Weather History & Observations

Time (EST) Temp. Dew Point Humidity Pressure Visibility Wind Dir Wind Speed Gust Speed Precip Events Conditions
12:53 AM 36.0 °F 33.1 °F 89% 30.12 in 8.0 mi Calm Calm - N/A   Clear
1:53 AM 35.1 °F 33.1 °F 92% 30.12 in 8.0 mi Calm Calm - N/A   Clear
2:25 AM 35.6 °F 32.0 °F 87% 30.08 in 2.5 mi Calm Calm - N/A   Partly Cloudy
2:35 AM 35.6 °F 32.0 °F 87% 30.08 in 3.0 mi Calm Calm - N/A   Mostly Cloudy
2:43 AM 35.6 °F 32.0 °F 87% 30.08 in 6.0 mi Calm Calm - N/A   Scattered Clouds
2:53 AM 34.0 °F 32.0 °F 92% 30.13 in 6.0 mi Calm Calm - N/A   Partly Cloudy
3:53 AM 34.0 °F 30.9 °F 89% 30.12 in 8.0 mi Calm Calm - N/A   Clear
4:53 AM 33.1 °F 30.9 °F 92% 30.13 in 9.0 mi Calm Calm - N/A   Clear
5:09 AM 33.8 °F 30.2 °F 87% 30.09 in 9.0 mi Calm Calm - N/A   Scattered Clouds
5:19 AM 33.8 °F 30.2 °F 87% 30.09 in 9.0 mi Calm Calm - N/A   Mostly Cloudy
5:44 AM 33.8 °F 30.2 °F 87% 30.09 in 1.8 mi Calm Calm - N/A   Overcast
5:53 AM 33.1 °F 30.9 °F 92% 30.13 in 1.8 mi Calm Calm - N/A   Mostly Cloudy
5:55 AM 33.8 °F 30.2 °F 87% 30.09 in 3.0 mi Calm Calm - N/A   Scattered Clouds
6:53 AM 34.0 °F 32.0 °F 92% 30.14 in 9.0 mi Calm Calm - N/A   Clear
7:53 AM 35.1 °F 33.1 °F 92% 30.16 in 8.0 mi Calm Calm - N/A   Clear
8:53 AM 45.0 °F 39.9 °F 82% 30.18 in 10.0 mi Calm Calm - N/A   Clear
9:53 AM 51.1 °F 42.1 °F 71% 30.19 in 10.0 mi NNW 8.1 mph - N/A   Clear
10:53 AM 57.0 °F 39.9 °F 53% 30.18 in 10.0 mi NE 5.8 mph - N/A   Clear
11:53 AM 61.0 °F 39.0 °F 44% 30.17 in 10.0 mi North 4.6 mph - N/A   Clear
12:53 PM 63.0 °F 37.9 °F 40% 30.14 in 10.0 mi NW 8.1 mph - N/A   Clear
1:53 PM 63.0 °F 35.1 °F 35% 30.09 in 10.0 mi Calm Calm - N/A   Clear
2:53 PM 64.9 °F 35.1 °F 33% 30.07 in 10.0 mi Variable 3.5 mph - N/A   Clear
3:53 PM 66.0 °F 35.1 °F 32% 30.06 in 10.0 mi WNW 5.8 mph - N/A   Clear
4:53 PM 66.0 °F 37.0 °F 34% 30.05 in 10.0 mi North 5.8 mph - N/A   Clear
5:53 PM 60.1 °F 43.0 °F 53% 30.05 in 10.0 mi SW 9.2 mph - N/A   Clear
6:53 PM 55.0 °F 44.1 °F 67% 30.06 in 10.0 mi WSW 5.8 mph - N/A   Clear
7:53 PM 53.1 °F 44.1 °F 71% 30.08 in 10.0 mi Calm Calm - N/A   Clear
8:53 PM 52.0 °F 44.1 °F 74% 30.09 in 10.0 mi Calm Calm - N/A   Clear
9:53 PM 48.0 °F 44.1 °F 86% 30.08 in 10.0 mi WNW 3.5 mph - N/A   Clear
10:53 PM 45.0 °F 42.1 °F 90% 30.09 in 10.0 mi Calm Calm - N/A   Clear
11:53 PM 45.0 °F 42.1 °F 90% 30.08 in 10.0 mi Calm Calm - N/A   Clear